This is the latest recevied weather packets stored in our database for station/object PA3CPS. If no packets are shown the sender has not sent any weather packets the latest 10 day(s).
| Time | Temp. | Humidity | Pressure | Rain* | Wind** | Luminosity | Snow |
|---|---|---|---|---|---|---|---|
| 1777807078 | 20° C | 74% | 1010 hPa | 0 mm | - | 425 W/m² | - |
| 1777806780 | 20° C | 75% | 1010 hPa | 0 mm | - | 313 W/m² | - |
| 1777806477 | 20° C | 78% | 1009.9 hPa | 0 mm | - | 281 W/m² | - |
| 1777806175 | 20° C | 77% | 1009.9 hPa | 0 mm | - | 318 W/m² | - |
| 1777805873 | 20.56° C | 77% | 1009.9 hPa | 0 mm | - | 251 W/m² | - |
| 1777805574 | 20.56° C | 79% | 1009.9 hPa | 0 mm | - | 260 W/m² | - |
| 1777805270 | 20.56° C | 79% | 1009.8 hPa | 0 mm | - | 272 W/m² | - |
| 1777804970 | 20.56° C | 79% | 1010 hPa | 0 mm | - | 288 W/m² | - |
| 1777804668 | 20.56° C | 78% | 1009.9 hPa | 0 mm | - | 316 W/m² | - |
| 1777804367 | 20.56° C | 80% | 1009.9 hPa | 0 mm | - | 427 W/m² | - |
| 1777804066 | 20° C | 80% | 1009.7 hPa | 0 mm | - | 434 W/m² | - |
| 1777803763 | 20° C | 79% | 1009.9 hPa | 0 mm | - | 329 W/m² | - |
| 1777803461 | 20.56° C | 80% | 1009.8 hPa | 0 mm | - | 343 W/m² | - |
| 1777803159 | 20.56° C | 79% | 1009.9 hPa | 0 mm | - | 404 W/m² | - |
| 1777802853 | 20.56° C | 79% | 1009.8 hPa | 0 mm | - | 413 W/m² | - |
| 1777802556 | 20° C | 79% | 1009.8 hPa | 0 mm | - | 396 W/m² | - |
| 1777802254 | 20° C | 80% | 1009.8 hPa | 0 mm | - | 336 W/m² | - |
| 1777801953 | 19.44° C | 80% | 1009.8 hPa | 0 mm | - | 316 W/m² | - |
| 1777801652 | 20° C | 80% | 1009.9 hPa | 0 mm | - | 332 W/m² | - |
| 1777801352 | 19.44° C | 80% | 1009.9 hPa | 0 mm | - | 313 W/m² | - |
| 1777801052 | 19.44° C | 79% | 1009.8 hPa | 0 mm | - | 316 W/m² | - |
| 1777800751 | 19.44° C | 79% | 1009.8 hPa | 0 mm | - | 318 W/m² | - |
| 1777800451 | 20° C | 79% | 1009.8 hPa | 0 mm | - | 334 W/m² | - |
| 1777800152 | 20° C | 78% | 1009.8 hPa | 0 mm | - | 371 W/m² | - |
| 1777799853 | 20° C | 78% | 1009.8 hPa | 0 mm | - | 443 W/m² | - |
* Rain latest hour (hover to see other rain measurements)
** Current wind speed in m/s (hover to see current wind gust speed)